Location: Bothwell
(42.3833°S, 147.0000°E)
Time: 20:34:06
(UTC+11:00)

CUBESAT XI-V - Pass Details

Date: 01 October 2022
Orbit: 666 x 689 km, 98.1° (Epoch: 25 November)

Event Time Altitude Azimuth Distance (km) Brightness Sun altitude
Rises 01:54:51 0° 154° (SSE) 3,089 ? -38.0°
Reaches altitude 10° 01:57:30 10° 140° (SE) 2,167 ? -37.7°
Enters shadow 01:59:23 19° 121° (ESE) 1,646 ? -37.4°
